Location: Seattle
(47.6064°N, 122.3308°W)
Time: 01:11:29
(UTC-07:00)

UKube-1 - Pass Details

Date: 10 April 2023
Orbit: 602 x 605 km, 98.3° (Epoch: 28 May)

Event Time Altitude Azimuth Distance (km) Brightness Sun altitude
Rises 01:31:31 0° 3° (N) 2,870 ? -34.3°
Reaches altitude 10° 01:34:00 10° 350° (N) 1,963 ? -34.2°
Enters shadow 01:35:25 17° 335° (NNW) 1,545 ? -34.2°
